Miramar MCAS, CA

2:13 PM PDT on May 25, 2018 (GMT -0700)
Miramar Marine Corps Air Station-Mitscher

Weather History for KNKX - March, 2013

Change the Weather History Date:

Sunday, March 17, 2013

  Actual Average Record
Temperature  
Mean Temperature 58 °F -  
Max Temperature 64 °F 64 °F 82 °F (2015)
Min Temperature 53 °F 46 °F 41 °F (2008)
Degree Days  
Heating Degree Days 6    
Growing Degree Days 8 (Base 50)    
Moisture  
Dew Point 48 °F    
Average Humidity 73    
Maximum Humidity 83    
Minimum Humidity 58    
Precipitation  
Precipitation 0.00 in - - ()
Sea Level Pressure  
Sea Level Pressure 29.97 in    
Wind  
Wind Speed 4 mph (SSW)    
Max Wind Speed 10 mph    
Max Gust Speed 16 mph    
Visibility 7 miles    
Events      
Averages and records for this station are not official NWS values.
T = Trace of Precipitation, MM = Missing Value Source: NWS Daily Summary

Daily Weather History Graph

Daily Weather History Graph

Search for Another Location

Airport or City:

Astronomy

Mar. 17, 2013 Rise Set
Actual Time 6:55 AM PDT 6:58 PM PDT
Civil Twilight 6:31 AM PDT 7:22 PM PDT
Nautical Twilight 6:02 AM PDT 7:51 PM PDT
Astronomical Twilight 5:33 AM PDT 8:20 PM PDT
Moon 10:29 AM PDT (3/17) No Moon Set
Length of Visible Light 12h 51m
Length of Day
12h 02m
Waxing Crescent, 32% of the Moon is Illuminated
Mar 17
Waxing Crescent
Mar 19
First Quarter
Mar 27
Full
Apr 2
Last Quarter
Apr 10
New

Hourly Weather History & Observations

Time (PDT) Temp. Dew Point Humidity Pressure Visibility Wind Dir Wind Speed Gust Speed Precip Events Conditions
12:55 AM 55.0 °F 48.9 °F 80% 29.95 in 5.0 mi SE 4.6 mph - N/A   Haze
1:55 AM 54.0 °F 48.9 °F 83% 29.94 in 5.0 mi South 5.8 mph - N/A   Haze
2:55 AM 54.0 °F 48.9 °F 83% 29.95 in 6.0 mi SSW 4.6 mph - N/A   Haze
3:55 AM 54.0 °F 48.0 °F 80% 29.94 in 7.0 mi SE 3.5 mph - N/A   Overcast
4:55 AM 54.0 °F 48.0 °F 80% 29.94 in 6.0 mi SE 3.5 mph - N/A   Haze
5:55 AM 53.1 °F 46.9 °F 80% 29.94 in 5.0 mi East 4.6 mph - N/A   Haze
6:55 AM 53.1 °F 46.9 °F 80% 29.95 in 5.0 mi Calm Calm - N/A   Haze
7:55 AM 54.0 °F 46.9 °F 77% 29.96 in 3.0 mi Calm Calm - N/A   Haze
8:55 AM 55.0 °F 46.9 °F 74% 29.99 in 4.0 mi Calm Calm - N/A   Haze
9:55 AM 55.9 °F 46.9 °F 72% 30.00 in 4.0 mi West 5.8 mph - N/A   Haze
10:34 AM 57.2 °F 46.4 °F 67% 30.00 in 5.0 mi Calm Calm - N/A   Haze
10:55 AM 57.9 °F 46.9 °F 67% 29.98 in 4.0 mi Calm Calm - N/A   Haze
11:55 AM 61.0 °F 48.0 °F 62% 29.99 in 6.0 mi West 4.6 mph - N/A   Haze
12:55 PM 64.0 °F 50.0 °F 60% 29.99 in 7.0 mi WSW 10.4 mph 16.1 mph N/A   Scattered Clouds
1:55 PM 63.0 °F 48.9 °F 60% 29.97 in 10.0 mi WSW 8.1 mph - N/A   Scattered Clouds
2:55 PM 63.0 °F 48.9 °F 60% 29.95 in 10.0 mi SSW 6.9 mph - N/A   Partly Cloudy
3:55 PM 64.0 °F 48.9 °F 58% 29.94 in 10.0 mi SW 6.9 mph - N/A   Partly Cloudy
4:55 PM 62.1 °F 48.9 °F 62% 29.95 in 10.0 mi SSW 8.1 mph - N/A   Partly Cloudy
5:55 PM 60.1 °F 48.9 °F 67% 29.96 in 10.0 mi SW 5.8 mph - N/A   Scattered Clouds
6:55 PM 55.9 °F 48.0 °F 75% 29.96 in 10.0 mi SW 4.6 mph - N/A   Scattered Clouds
7:55 PM 53.1 °F 48.0 °F 83% 29.98 in 9.0 mi Calm Calm - N/A   Scattered Clouds
8:55 PM 54.0 °F 48.9 °F 83% 29.98 in 9.0 mi Calm Calm - N/A   Mostly Cloudy
9:55 PM 55.0 °F 48.9 °F 80% 29.99 in 9.0 mi SSE 5.8 mph - N/A   Mostly Cloudy
10:55 PM 55.0 °F 48.9 °F 80% 30.00 in 8.0 mi Calm Calm - N/A   Mostly Cloudy
11:55 PM 55.0 °F 48.9 °F 80% 30.00 in 8.0 mi South 3.5 mph - N/A   Mostly Cloudy